Tonopah, NV

4:39 PM PDT on July 25, 2016 (GMT -0700)
Tonopah

Weather History for KTPH - December, 2013

Change the Weather History Date:

Tuesday, December 24, 2013

  Actual Average Record
Temperature  
Mean Temperature 39 °F 31 °F  
Max Temperature 54 °F 44 °F 63 °F (1964)
Min Temperature 24 °F 19 °F -5 °F (1990)
Degree Days  
Heating Degree Days 26 34  
Month to date heating degree days 855 792  
Since 1 July heating degree days 2082 2009  
Cooling Degree Days 0 0  
Month to date cooling degree days 0 0  
Year to date cooling degree days 1042 783  
Moisture  
Dew Point 23 °F    
Average Humidity 57    
Maximum Humidity 85    
Minimum Humidity 28    
Precipitation  
Precipitation 0.00 in 0.02 in 0.11 in (1971)
Month to date precipitation 0.04 0.24  
Year to date precipitation 4.49 5.17  
Sea Level Pressure  
Sea Level Pressure 30.43 in    
Wind  
Wind Speed 10 mph (North)    
Max Wind Speed 24 mph    
Max Gust Speed 29 mph    
Visibility 10 miles    
Events      
T = Trace of Precipitation, MM = Missing Value Source: NWS Daily Summary

Daily Weather History Graph

Daily Weather History Graph

Search for Another Location

Airport or City:

Trip Planner

Search our weather history database for the weather conditions in past years. The results will help you decide how hot, cold, wet, or windy it might be!

Date:

Astronomy

Dec. 24, 2013 Rise Set
Actual Time 7:02 AM PST 4:34 PM PST
Civil Twilight 6:32 AM PST 5:03 PM PST
Nautical Twilight 5:59 AM PST 5:36 PM PST
Astronomical Twilight 5:27 AM PST 6:08 PM PST
Moon 11:40 PM PST (12/24) 11:04 AM PST (12/24)
Length of Visible Light 10h 30m
Length of Day
9h 31m
Waning Gibbous, 57% of the Moon is Illuminated
Dec 24
Waning Gibbous
Dec 25
Last Quarter
Jan 1
New
Jan 7
First Quarter
Jan 15
Full

Hourly Weather History & Observations

Time (PST) Temp. Windchill Dew Point Humidity Pressure Visibility Wind Dir Wind Speed Gust Speed Precip Events Conditions
12:56 AM 28.9 °F 21.1 °F 23.0 °F 78% 30.41 in 10.0 mi North 8.1 mph - N/A   Clear
1:56 AM 28.0 °F 19.3 °F 23.0 °F 81% 30.41 in 10.0 mi NNE 9.2 mph - N/A   Clear
2:56 AM 28.9 °F 20.4 °F 24.1 °F 82% 30.40 in 10.0 mi North 9.2 mph - N/A   Clear
3:56 AM 30.9 °F 26.2 °F 23.0 °F 72% 30.39 in 10.0 mi Variable 4.6 mph - N/A   Clear
4:56 AM 26.1 °F - 21.0 °F 81% 30.44 in 10.0 mi Calm Calm - N/A   Clear
5:56 AM 26.1 °F - 21.9 °F 84% 30.45 in 10.0 mi Calm Calm - N/A   Clear
6:56 AM 24.1 °F 19.7 °F 19.9 °F 84% 30.48 in 10.0 mi Variable 3.5 mph - N/A   Clear
7:56 AM 28.0 °F 21.7 °F 21.9 °F 78% 30.47 in 10.0 mi North 5.8 mph - N/A   Clear
8:56 AM 36.0 °F 33.3 °F 25.0 °F 64% 30.46 in 10.0 mi NE 3.5 mph - N/A   Clear
9:56 AM 48.0 °F - 28.9 °F 48% 30.43 in 10.0 mi NW 16.1 mph 21.9 mph N/A   Clear
10:56 AM 50.0 °F - 28.0 °F 43% 30.40 in 10.0 mi NNW 20.7 mph 27.6 mph N/A   Clear
11:56 AM 52.0 °F - 27.0 °F 38% 30.38 in 10.0 mi NW 17.3 mph - N/A   Clear
12:56 PM 53.1 °F - 25.0 °F 34% 30.37 in 10.0 mi NW 19.6 mph - N/A   Clear
1:56 PM 54.0 °F - 21.9 °F 29% 30.36 in 10.0 mi NNW 15.0 mph - N/A   Clear
2:56 PM 53.1 °F - 23.0 °F 31% 30.36 in 10.0 mi NNW 17.3 mph - N/A   Clear
3:56 PM 50.0 °F - 25.0 °F 38% 30.37 in 10.0 mi NNW 10.4 mph - N/A   Clear
4:56 PM 45.0 °F 41.8 °F 26.1 °F 48% 30.41 in 10.0 mi NW 5.8 mph - N/A   Clear
5:56 PM 41.0 °F 35.2 °F 21.9 °F 47% 30.45 in 10.0 mi NNE 9.2 mph - N/A   Clear
6:56 PM 37.0 °F 29.8 °F 24.1 °F 59% 30.48 in 10.0 mi North 10.4 mph - N/A   Clear
7:56 PM 35.1 °F - 19.9 °F 54% 30.50 in 10.0 mi North - - N/A   Clear
8:56 PM 34.0 °F 22.7 °F 21.0 °F 59% 30.48 in 10.0 mi North 19.6 mph - N/A   Clear
9:56 PM 33.1 °F 26.9 °F 19.9 °F 59% 30.45 in 10.0 mi NNW 6.9 mph - N/A   Clear
10:56 PM 30.0 °F 23.2 °F 19.9 °F 66% 30.48 in 10.0 mi ENE 6.9 mph - N/A   Clear
11:56 PM 30.0 °F 17.9 °F 19.0 °F 64% 30.47 in 10.0 mi North 18.4 mph - N/A   Clear